Location: Dappach
(48.9767°N, 9.6998°E)
Time: 02:11:42
(UTC+00:00)

Cosmos 1825 - Pass Details

Date: 23 May 2024
Orbit: 439 x 442 km, 82.5° (Epoch: 19 June)

Event Time Altitude Azimuth Distance (km) Brightness Sun altitude
Exits shadow 02:36:04 - 183° (S) 2,129 4.9 -7.6°
Reaches altitude 10° 02:37:25 10° 181° (S) 1,561 4.2 -7.5°
Maximum altitude 02:40:48 71° 98° (E) 475 2.1 -7.1°
Drops below altitude 10° 02:44:14 10° 14° (NNE) 1,581 5.6 -6.6°
Sets 02:46:19 0° 12° (NNE) 2,459 6.6 -6.4°
